�������l�o���
Date,Time,MP-1(��Sv/h),MP-2(��Sv/h),MP-3(��Sv/h),MP-4(��Sv/h),MP-5(��Sv/h),MP-6(��Sv/h),MP-7(��Sv/h),MP-8(��Sv/h),����,����(m/s),���J
2020/10/27,00:00,0.655,0.939,0.595,1.147,0.829,0.381,0.664,0.629,�k��,2.0,��
2020/10/27,00:10,0.655,0.940,0.596,1.150,0.828,0.381,0.665,0.627,���k��,1.7,��
2020/10/27,00:20,0.655,0.940,0.594,1.150,0.828,0.381,0.665,0.630,���k��,2.3,��
2020/10/27,00:30,0.654,0.938,0.595,1.148,0.830,0.381,0.666,0.627,��,3.4,��
2020/10/27,00:40,0.654,0.937,0.596,1.149,0.829,0.382,0.664,0.628,���k��,3.6,��
2020/10/27,00:50,0.654,0.937,0.595,1.148,0.828,0.382,0.667,0.629,�k��,3.8,��
2020/10/27,01:00,0.655,0.937,0.596,1.147,0.829,0.382,0.664,0.627,�k��,4.3,��
2020/10/27,01:10,0.655,0.937,0.595,1.151,0.829,0.380,0.664,0.627,�k��,4.9,��
2020/10/27,01:20,0.656,0.939,0.594,1.148,0.830,0.382,0.664,0.627,���k��,6.3,��
2020/10/27,01:30,0.655,0.937,0.595,1.149,0.828,0.382,0.666,0.628,���k��,6.6,��
2020/10/27,01:40,0.655,0.937,0.595,1.146,0.827,0.382,0.665,0.625,��,6.4,��
2020/10/27,01:50,0.657,0.937,0.597,1.148,0.828,0.383,0.665,0.628,���k��,6.2,��
2020/10/27,02:00,0.653,0.937,0.596,1.149,0.828,0.382,0.665,0.629,���k��,6.0,��
2020/10/27,02:10,0.654,0.936,0.596,1.148,0.827,0.380,0.667,0.627,���k��,5.4,��
2020/10/27,02:20,0.654,0.938,0.595,1.148,0.828,0.382,0.666,0.628,���k��,5.6,��
2020/10/27,02:30,0.654,0.936,0.594,1.148,0.828,0.381,0.665,0.628,���k��,5.4,��
2020/10/27,02:40,0.654,0.936,0.596,1.148,0.830,0.381,0.665,0.627,���k��,5.3,��
2020/10/27,02:50,0.653,0.938,0.596,1.148,0.828,0.382,0.663,0.628,�k��,5.7,��
2020/10/27,03:00,0.655,0.937,0.597,1.149,0.828,0.381,0.663,0.627,�k��,5.8,��
2020/10/27,03:10,0.655,0.937,0.595,1.150,0.829,0.382,0.665,0.627,���k��,7.4,��
2020/10/27,03:20,0.657,0.937,0.595,1.149,0.828,0.382,0.664,0.627,���k��,7.1,��
2020/10/27,03:30,0.657,0.939,0.595,1.150,0.828,0.381,0.665,0.628,���k��,7.9,��
2020/10/27,03:40,0.654,0.939,0.597,1.150,0.827,0.382,0.664,0.628,���k��,7.9,��
2020/10/27,03:50,0.655,0.937,0.597,1.151,0.828,0.382,0.665,0.629,���k��,6.7,��
2020/10/27,04:00,0.656,0.937,0.596,1.147,0.828,0.382,0.664,0.629,���k��,6.7,��
2020/10/27,04:10,0.656,0.938,0.597,1.150,0.828,0.382,0.663,0.627,���k��,6.4,��
2020/10/27,04:20,0.655,0.937,0.596,1.151,0.827,0.381,0.665,0.629,���k��,7.2,��
2020/10/27,04:30,0.656,0.936,0.595,1.152,0.829,0.383,0.664,0.628,���k��,7.2,��
2020/10/27,04:40,0.657,0.938,0.596,1.151,0.829,0.383,0.665,0.628,��,5.4,��
2020/10/27,04:50,0.654,0.938,0.597,1.148,0.827,0.382,0.663,0.627,���k��,5.0,��
2020/10/27,05:00,0.656,0.938,0.594,1.151,0.828,0.382,0.665,0.628,��,5.1,��
2020/10/27,05:10,0.656,0.937,0.596,1.150,0.829,0.381,0.664,0.626,���k��,5.3,��
2020/10/27,05:20,0.654,0.937,0.597,1.149,0.825,0.380,0.665,0.627,���k��,4.4,��
2020/10/27,05:30,0.653,0.936,0.596,1.152,0.830,0.380,0.666,0.627,���k��,3.8,��
2020/10/27,05:40,0.656,0.937,0.594,1.150,0.829,0.382,0.665,0.628,�k��,3.2,��
2020/10/27,05:50,0.654,0.938,0.595,1.150,0.828,0.381,0.665,0.628,�k��,5.6,��
2020/10/27,06:00,0.655,0.937,0.593,1.149,0.830,0.381,0.664,0.626,�k��,5.3,��
2020/10/27,06:10,0.655,0.935,0.596,1.152,0.829,0.381,0.665,0.628,�k��,5.5,��
2020/10/27,06:20,0.655,0.937,0.596,1.149,0.828,0.383,0.664,0.627,�k��,4.6,��
2020/10/27,06:30,0.657,0.937,0.594,1.151,0.829,0.382,0.665,0.628,�k��,4.6,��
2020/10/27,06:40,0.657,0.940,0.595,1.148,0.828,0.380,0.665,0.628,�k��,4.5,��
2020/10/27,06:50,0.655,0.936,0.596,1.149,0.827,0.383,0.666,0.627,�k��,5.4,��
2020/10/27,07:00,0.654,0.937,0.596,1.148,0.825,0.381,0.665,0.628,�k��,5.8,��
2020/10/27,07:10,0.654,0.939,0.595,1.149,0.828,0.382,0.664,0.629,�k��,3.8,��
2020/10/27,07:20,0.653,0.939,0.595,1.148,0.827,0.381,0.666,0.627,�k��,3.3,��
2020/10/27,07:30,0.654,0.939,0.596,1.150,0.828,0.381,0.665,0.628,�k��,4.3,��
2020/10/27,07:40,0.656,0.938,0.596,1.151,0.826,0.382,0.665,0.627,�k��,3.8,��
2020/10/27,07:50,0.656,0.938,0.596,1.151,0.827,0.382,0.665,0.628,�k��,3.6,��
2020/10/27,08:00,0.656,0.936,0.595,1.149,0.828,0.381,0.665,0.627,�k��,2.8,��
2020/10/27,08:10,0.657,0.938,0.596,1.150,0.830,0.382,0.666,0.629,�k��,2.3,��
2020/10/27,08:20,0.657,0.936,0.598,1.150,0.827,0.381,0.665,0.629,�k��,2.3,��
2020/10/27,08:30,0.657,0.936,0.598,1.150,0.827,0.381,0.664,0.629,�k��,2.5,��
2020/10/27,08:40,0.657,0.935,0.597,1.152,0.826,0.381,0.664,0.627,�k��,2.8,��
2020/10/27,08:50,0.657,0.935,0.596,1.151,0.830,0.381,0.665,0.627,���k��,2.5,��
2020/10/27,09:00,0.656,0.934,0.595,1.151,0.826,0.381,0.666,0.628,�k,2.2,��
2020/10/27,09:10,0.656,0.933,0.597,1.150,0.829,0.381,0.664,0.628,�k,2.9,��
2020/10/27,09:20,0.656,0.934,0.599,1.150,0.830,0.382,0.663,0.629,�k��,2.6,��
2020/10/27,09:30,0.656,0.933,0.596,1.153,0.830,0.382,0.664,0.629,�k�k��,3.6,��
2020/10/27,09:40,0.656,0.932,0.597,1.152,0.829,0.382,0.664,0.629,�k�k��,3.1,��
2020/10/27,09:50,0.655,0.935,0.596,1.150,0.823,0.380,0.666,0.630,�k�k��,4.1,��
2020/10/27,10:00,0.657,0.935,0.596,1.152,0.821,0.380,0.665,0.629,�k�k��,4.4,��
2020/10/27,10:10,0.656,0.938,0.594,1.149,0.822,0.380,0.666,0.627,�k�k��,4.2,��
2020/10/27,10:20,0.656,0.936,0.595,1.151,-,0.381,0.666,0.628,�k�k��,4.5,��
2020/10/27,10:30,0.655,0.936,0.595,1.151,-,0.379,0.663,0.629,�k�k��,5.3,��
2020/10/27,10:40,0.657,0.937,0.595,1.151,-,0.381,0.665,0.629,�k��,4.6,��
2020/10/27,10:50,0.656,0.935,0.596,1.150,-,0.380,0.665,0.628,�k�k��,5.0,��
2020/10/27,11:00,0.658,0.938,0.594,1.151,-,0.379,0.665,0.626,�k�k��,4.9,��
2020/10/27,11:10,0.655,0.936,0.597,1.153,-,0.380,0.665,0.628,�k�k��,4.2,��
2020/10/27,11:20,0.658,0.936,0.596,1.152,-,0.379,0.665,0.630,�k��,4.7,��
2020/10/27,11:30,0.656,0.938,0.595,1.152,-,0.380,0.667,0.630,�k��,4.2,��
2020/10/27,11:40,0.657,0.935,0.596,1.152,-,0.381,0.667,0.628,�k��,4.9,��
2020/10/27,11:50,0.657,0.939,0.596,1.151,-,0.380,0.667,0.627,�k�k��,4.3,��
2020/10/27,12:00,0.657,0.940,0.597,1.152,-,0.381,0.666,0.630,�k�k��,4.4,��
2020/10/27,12:10,0.657,0.942,0.594,1.149,-,0.382,0.666,0.629,�k�k��,3.7,��
2020/10/27,12:20,0.656,0.940,0.597,1.153,-,0.383,0.665,0.629,�k��,4.0,��
2020/10/27,12:30,0.656,0.940,0.596,1.152,-,0.384,0.666,0.627,�k��,2.9,��
2020/10/27,12:40,0.658,0.941,0.595,1.153,0.826,0.382,0.665,0.627,�k��,3.4,��
2020/10/27,12:50,0.656,0.938,0.596,1.152,0.832,0.382,0.666,0.627,���k��,2.9,��
2020/10/27,13:00,0.655,0.939,0.596,1.154,0.831,0.382,0.665,0.626,���k��,2.6,��
2020/10/27,13:10,0.656,0.937,0.595,1.154,0.831,0.381,0.664,0.625,��,2.0,��
2020/10/27,13:20,0.657,0.937,0.596,1.154,0.832,0.382,0.664,0.625,���k��,2.5,��
2020/10/27,13:30,0.656,0.936,0.596,1.153,0.831,0.383,0.666,0.626,��,2.3,��
2020/10/27,13:40,0.655,0.939,0.594,1.153,0.832,0.382,0.664,0.626,��,2.8,��
2020/10/27,13:50,0.655,0.934,0.595,1.152,0.832,0.381,0.665,0.626,��,2.8,��
2020/10/27,14:00,0.656,0.937,0.595,1.155,0.831,0.383,0.665,0.627,��,2.3,��
2020/10/27,14:10,0.654,0.938,0.597,1.152,0.834,0.382,0.666,0.626,��,2.5,��
2020/10/27,14:20,0.656,0.938,0.596,1.153,0.832,0.382,0.665,0.626,�쓌,3.3,��
2020/10/27,14:30,0.656,0.938,0.596,1.155,0.831,0.380,0.664,0.627,�쓌,3.8,��
2020/10/27,14:40,0.655,0.938,0.598,1.152,0.831,0.380,0.664,0.627,���쓌,3.6,��
2020/10/27,14:50,0.655,0.939,0.598,1.156,0.831,0.381,0.666,0.627,���쓌,3.4,��
2020/10/27,15:00,0.656,0.938,0.597,1.154,0.833,0.382,0.666,0.625,�쓌,3.9,��
2020/10/27,15:10,0.655,0.941,0.597,1.155,0.830,0.382,0.664,0.627,���쓌,3.1,��
2020/10/27,15:20,0.657,0.941,0.598,1.155,0.832,0.383,0.665,0.626,�쓌,2.8,��
2020/10/27,15:30,0.656,0.946,0.598,1.155,0.832,0.383,0.665,0.626,�쓌,3.1,��
2020/10/27,15:40,0.660,0.945,0.600,1.157,0.830,0.382,0.665,0.628,���쓌,2.3,��
2020/10/27,15:50,0.658,0.945,0.597,1.155,0.831,0.384,0.664,0.630,���쓌,2.8,��
2020/10/27,16:00,0.657,0.945,0.598,1.155,0.834,0.382,0.664,0.628,���쓌,2.3,��
2020/10/27,16:10,0.657,0.945,0.599,1.154,0.830,0.383,0.665,0.629,���쓌,2.2,��
2020/10/27,16:20,0.660,0.947,0.599,1.154,0.833,0.383,0.665,0.630,���쓌,2.6,��
2020/10/27,16:30,0.658,0.945,0.599,1.155,0.833,0.383,0.665,0.631,�쓌,2.2,��
2020/10/27,16:40,0.659,0.946,0.600,1.155,0.831,0.382,0.664,0.629,���쓌,2.5,��
2020/10/27,16:50,0.658,0.948,0.599,1.153,0.831,0.382,0.664,0.630,���쓌,2.2,��
2020/10/27,17:00,0.657,0.947,0.599,1.154,0.833,0.383,0.668,0.631,���쓌,2.3,��
2020/10/27,17:10,0.659,0.946,0.600,1.150,0.835,0.384,0.665,0.630,�쓌,2.2,��
2020/10/27,17:20,0.659,0.945,0.598,1.153,0.834,0.381,0.666,0.629,���쓌,2.3,��
2020/10/27,17:30,0.657,0.947,0.597,1.152,0.835,0.382,0.667,0.628,���쓌,1.7,��
2020/10/27,17:40,0.657,0.946,0.599,1.153,0.834,0.381,0.666,0.628,���쓌,1.5,��
2020/10/27,17:50,0.658,0.946,0.597,1.154,0.836,0.383,0.666,0.627,���쓌,1.7,��
2020/10/27,18:00,0.657,0.947,0.599,1.154,0.832,0.382,0.667,0.630,��쓌,1.4,��
2020/10/27,18:10,0.658,0.948,0.598,1.151,0.835,0.382,0.667,0.631,��,0.8,��
2020/10/27,18:20,0.657,0.946,0.598,1.154,0.834,0.382,0.665,0.629,��,0.9,��
2020/10/27,18:30,0.657,0.947,0.598,1.152,0.834,0.383,0.665,0.629,�쓌,1.1,��
2020/10/27,18:40,0.658,0.946,0.598,1.154,0.835,0.383,0.666,0.629,��,0.6,��
2020/10/27,18:50,0.657,0.945,0.596,1.156,0.834,0.382,0.666,0.628,��쐼,0.8,��
2020/10/27,19:00,0.656,0.945,0.600,1.154,0.833,0.383,0.665,0.629,��,0.9,��
2020/10/27,19:10,0.657,0.946,0.599,1.153,0.834,0.382,0.666,0.629,��쓌,0.9,��
2020/10/27,19:20,0.657,0.945,0.600,1.154,0.834,0.384,0.667,0.629,-,CALM,��
2020/10/27,19:30,0.656,0.946,0.598,1.153,0.834,0.381,0.665,0.629,-,CALM,��
2020/10/27,19:40,0.658,0.946,0.598,1.153,0.833,0.382,0.666,0.629,��,0.9,��
2020/10/27,19:50,0.657,0.946,0.598,1.154,0.833,0.382,0.665,0.630,���쐼,0.9,��
2020/10/27,20:00,0.657,0.944,0.597,1.154,0.833,0.381,0.666,0.629,��쐼,1.2,��
2020/10/27,20:10,0.655,0.946,0.597,1.155,0.833,0.383,0.667,0.629,��,0.9,��
2020/10/27,20:20,0.657,0.947,0.597,1.154,0.834,0.383,0.667,0.628,��쐼,1.1,��
2020/10/27,20:30,0.656,0.946,0.599,1.154,0.834,0.382,0.665,0.629,��쐼,0.8,��
2020/10/27,20:40,0.655,0.946,0.599,1.154,0.837,0.383,0.666,0.628,��,0.8,��
2020/10/27,20:50,0.658,0.944,0.597,1.154,0.833,0.381,0.665,0.629,�쐼,0.9,��
2020/10/27,21:00,0.657,0.944,0.598,1.154,0.834,0.382,0.666,0.628,�쐼,0.8,��
2020/10/27,21:10,0.658,0.945,0.599,1.154,0.833,0.382,0.665,0.628,�쐼,1.1,��
2020/10/27,21:20,0.656,0.947,0.597,1.153,0.835,0.382,0.667,0.629,��쐼,0.9,��
2020/10/27,21:30,0.656,0.944,0.598,1.154,0.834,0.383,0.665,0.628,��쐼,1.2,��
2020/10/27,21:40,0.656,0.944,0.596,1.153,0.834,0.382,0.665,0.628,��,0.9,��
2020/10/27,21:50,0.656,0.946,0.598,1.153,0.833,0.381,0.664,0.628,�쐼,0.9,��
2020/10/27,22:00,0.656,0.944,0.599,1.153,0.833,0.381,0.665,0.628,�쐼,1.1,��
2020/10/27,22:10,0.654,0.945,0.599,1.154,0.833,0.381,0.666,0.630,�쐼,0.6,��
2020/10/27,22:20,0.656,0.944,0.599,1.152,0.833,0.381,0.665,0.630,�쐼,0.6,��
2020/10/27,22:30,0.656,0.944,0.597,1.155,0.833,0.382,0.664,0.629,��쐼,0.9,��
2020/10/27,22:40,0.655,0.943,0.596,1.155,0.832,0.382,0.665,0.628,��쐼,1.2,��
2020/10/27,22:50,0.654,0.944,0.597,1.153,0.832,0.381,0.666,0.629,�쐼,1.4,��
2020/10/27,23:00,0.657,0.943,0.598,1.152,0.833,0.382,0.667,0.628,��쐼,1.4,��
2020/10/27,23:10,0.655,0.944,0.599,1.153,0.834,0.382,0.666,0.629,��쐼,1.1,��
2020/10/27,23:20,0.656,0.943,0.599,1.154,0.833,0.381,0.666,0.628,��쐼,1.2,��
2020/10/27,23:30,0.657,0.943,0.599,1.155,0.835,0.382,0.665,0.630,��쐼,0.9,��
2020/10/27,23:40,0.655,0.944,0.598,1.155,0.831,0.381,0.665,0.628,�쐼,0.9,��
2020/10/27,23:50,0.656,0.943,0.598,1.155,0.833,0.382,0.666,0.628,��쐼,0.9,��
